Madison County Lake Weather Center

Moon Phase Calendar



Madison County Lake Water Level
Online Cameras

 


      

Current Conditions in New Market
10/20/2020 9:36:19 AM

67°F
Feels Like 66
Clouds
Humidity
72%
Pressure
30.24"
Wind
5.8 mph (ESE)
Dew Point
57°F
UV Index
5/10 (Moderate)
Visibility
6 mi

Hourly Forecast

Date & Time Tue, Oct 20
9:00 AM
Tue, Oct 20
10:00 AM
Tue, Oct 20
11:00 AM
Tue, Oct 20
12:00 PM
Tue, Oct 20
1:00 PM
Tue, Oct 20
2:00 PM
Tue, Oct 20
3:00 PM
Tue, Oct 20
4:00 PM
Tue, Oct 20
5:00 PM
Tue, Oct 20
6:00 PM
Tue, Oct 20
7:00 PM
Tue, Oct 20
8:00 PM
Tue, Oct 20
9:00 PM
Tue, Oct 20
10:00 PM
Tue, Oct 20
11:00 PM
Wed, Oct 21
12:00 AM
Wed, Oct 21
1:00 AM
Wed, Oct 21
2:00 AM
Wed, Oct 21
3:00 AM
Wed, Oct 21
4:00 AM
Wed, Oct 21
5:00 AM
Wed, Oct 21
6:00 AM
Wed, Oct 21
7:00 AM
Wed, Oct 21
8:00 AM
Wed, Oct 21
9:00 AM
Wed, Oct 21
10:00 AM
Wed, Oct 21
11:00 AM
Wed, Oct 21
12:00 PM
Wed, Oct 21
1:00 PM
Wed, Oct 21
2:00 PM
Wed, Oct 21
3:00 PM
Wed, Oct 21
4:00 PM
Wed, Oct 21
5:00 PM
Wed, Oct 21
6:00 PM
Wed, Oct 21
7:00 PM
Wed, Oct 21
8:00 PM
Wed, Oct 21
9:00 PM
Wed, Oct 21
10:00 PM
Wed, Oct 21
11:00 PM
Thu, Oct 22
12:00 AM
Thu, Oct 22
1:00 AM
Thu, Oct 22
2:00 AM
Thu, Oct 22
3:00 AM
Thu, Oct 22
4:00 AM
Thu, Oct 22
5:00 AM
Thu, Oct 22
6:00 AM
Thu, Oct 22
7:00 AM
Thu, Oct 22
8:00 AM
Condition
Clouds

Clouds

Clouds

Clouds

Clouds

Clear

Clear

Clear

Clear

Clear

Clear

Clear

Clear

Clear

Clear

Clear

Clear

Clear

Clear

Clear

Clear

Clear

Clear

Clouds

Clouds

Clouds

Clouds

Clouds

Clouds

Clouds

Clouds

Clouds

Clouds

Clouds

Clouds

Clear

Clear

Clear

Clear

Clear

Clear

Clear

Clear

Clear

Clear

Clear

Clear

Clear
Temperature 67°F67°F70°F74°F77°F78°F78°F78°F75°F69°F66°F65°F64°F63°F61°F60°F60°F60°F59°F59°F59°F59°F58°F61°F66°F70°F74°F77°F79°F80°F79°F78°F76°F71°F69°F67°F66°F65°F65°F64°F63°F63°F63°F62°F62°F62°F62°F64°F
Feels Like 66°F66°F69°F73°F76°F79°F79°F78°F76°F70°F67°F65°F64°F62°F60°F59°F58°F58°F58°F58°F58°F58°F58°F61°F66°F71°F74°F78°F81°F83°F82°F81°F80°F73°F71°F69°F68°F67°F65°F65°F64°F63°F63°F63°F63°F63°F62°F65°F
Cloudiness 90%49%33%28%23%4%3%2%1%1%1%0%0%0%0%0%0%0%0%0%1%1%1%11%15%14%21%27%23%14%26%39%35%28%23%0%0%0%0%0%0%0%0%0%0%0%0%0%
Visibility 6 mi6 mi6 mi6 mi6 mi6 mi6 mi6 mi6 mi6 mi6 mi6 mi6 mi6 mi6 mi6 mi6 mi6 mi6 mi6 mi6 mi6 mi6 mi6 mi6 mi6 mi6 mi6 mi6 mi6 mi6 mi6 mi6 mi6 mi6 mi6 mi6 mi6 mi6 mi6 mi6 mi6 mi6 mi6 mi6 mi6 mi6 mi6 mi
Precipitation 0%0%0%0%0%0%0%0%0%0%0%0%0%0%0%0%0%0%0%0%0%0%0%0%0%0%0%0%0%0%0%0%0%0%0%0%0%0%0%0%0%0%0%0%0%0%0%0%
Humidity 72%67%61%57%53%51%52%54%63%71%74%76%77%76%75%74%75%76%78%80%81%82%83%80%73%68%64%60%57%56%57%60%66%74%78%81%83%83%83%83%82%82%84%87%90%91%92%88%
Dew Point 57°F56°F56°F58°F58°F59°F59°F60°F62°F59°F58°F58°F57°F55°F54°F53°F52°F52°F53°F53°F53°F53°F54°F55°F57°F59°F61°F62°F63°F63°F63°F63°F64°F62°F62°F61°F61°F60°F59°F59°F58°F58°F58°F59°F59°F59°F59°F61°F
Pressure 30.24"30.24"30.21"30.18"30.18"30.12"30.09"30.09"30.09"30.09"30.12"30.15"30.15"30.15"30.15"30.15"30.18"30.18"30.18"30.18"30.18"30.21"30.21"30.24"30.24"30.21"30.21"30.21"30.18"30.15"30.12"30.12"30.12"30.12"30.15"30.18"30.18"30.18"30.18"30.15"30.15"30.18"30.15"30.15"30.15"30.15"30.18"30.18"
Wind Speed 4.6 mph5.4 mph6.1 mph5.7 mph4.9 mph3.8 mph3.6 mph4.3 mph4.7 mph4.2 mph3.2 mph3.6 mph3.8 mph4.2 mph3.7 mph3.6 mph3.6 mph3.6 mph4 mph4 mph3.5 mph3.3 mph3.1 mph3.2 mph3.8 mph4.5 mph4.8 mph4.8 mph3.6 mph2.8 mph3.1 mph3.4 mph3.4 mph3.1 mph3.2 mph3.5 mph3.2 mph3.1 mph3.8 mph3.7 mph3.8 mph3.8 mph3.5 mph3.6 mph3.7 mph3.9 mph4.1 mph4.3 mph
Wind
Direction
138°
SE
150°
SSE
154°
SSE
154°
SSE
156°
SSE
153°
SSE
143°
SE
139°
SE
143°
SE
147°
SSE
132°
SE
119°
ESE
115°
ESE
117°
ESE
115°
ESE
112°
ESE
114°
ESE
112°
ESE
120°
ESE
121°
ESE
114°
ESE
113°
ESE
107°
ESE
107°
ESE
121°
ESE
129°
SE
133°
SE
132°
SE
128°
SE
114°
ESE
98°
E
86°
E
85°
E
76°
ENE
68°
ENE
72°
ENE
78°
ENE
85°
E
99°
E
99°
E
102°
ESE
104°
ESE
105°
ESE
109°
ESE
112°
ESE
110°
ESE
111°
ESE
113°
ESE

Daily Forecast

Date High Low Precip. Humidity
Today
Oct 20

Clouds
77 °F
59 °F
0%
57%
Wednesday
Oct 21

Clouds
79 °F
58 °F
0%
57%
Thursday
Oct 22

Clear
79 °F
62 °F
0%
56%
Friday
Oct 23

Rain
78 °F
63 °F
61%
63%
Saturday
Oct 24

Rain
76 °F
63 °F
100%
74%
Sunday
Oct 25

Rain
76 °F
63 °F
94%
72%
Monday
Oct 26

Rain
76 °F
65 °F
100%
77%
Tuesday
Oct 27

Rain
67 °F
56 °F
100%
85%
Wednesday
Oct 28

Rain
57 °F
40 °F
100%
84%
Thursday
Oct 29

Clear
50 °F
30 °F
0%
46%
Friday
Oct 30

Clear
61 °F
37 °F
0%
42%
Saturday
Oct 31

Clear
64 °F
43 °F
0%
50%
Sunday
Nov 1

Clear
61 °F
42 °F
0%
56%
Monday
Nov 2

Clear
63 °F
41 °F
0%
48%
Tuesday
Nov 3

Clear
60 °F
41 °F
0%
41%
Wednesday
Nov 4

Clear
66 °F
41 °F
0%
44%


Temperature 8-14 Day Outlook



Precipitation 8-14 Day Outlook




Quick Links
Madison County Lake News
Madison County Lake Photos
Madison County Lake Videos




About Us
Contact Us
Site Map
Search Site
Advertise With Us
   
MadisonCounty.LakesOnline.com
THE MADISON COUNTY LAKE WEBSITE

Copyright 2020, Lakes Online
Privacy    |    Legal